SCP
0 0 0 0 0 0 0 0 0 0 0 0 0 0 0 0 0 0 0 0 0 0 0 0 0 0 0 0 -0 -0 -0 -0 0 -0 -0 -0 -0 -0 -0 -0 -0 0 -0 0 0 0 0 0 0 0 0 0 0 0
0 0 0 0 0 0 0 0 0 0 0 0 0 0 0 0 0 0 0 0 0 0 0 -0 -0 0 -0 0 -0 0 0 0 0 -0 -0 -0 0 0 0 0 -0 0 0 -0 -0 -0 -0 -0 -0 -0 -0 -0 0 0
0 0 0 0 0 0 0 0 0 0 0 0 0 0 0 0 0 0 0 0 0 0 0 0 -0 0 -0 -0 0 0 0 -0 -0 0 0 0 0 -0 0 0 -0 -0 -0 0 -0 0 0 0 -0 0 0 -0 -0 0
0 0 0 0 0 0 0 0 0 0 0 0 0 0 0 0 0 -0 0 -0 0 0 0 0 0 0 0 0 0 -0 -0 0 0 0 0 0 0 0 0 0 0 0 0 0 0 0 -0 0 0 -0 0 0 -0 -0
0 0 0 0 0 0 0 0 0 0 0 0 0 0 0 0 0 -0 0 0 0 0 0 -0 -0 0 0 0 -0 -0 -0 0 0 0 0 0 0 0 0 0 0 0 0 0 0 0 0 0 0 0 0 0 0 -0
0 0 0 0 0 0 0 0 0 0 0 0 0 0 0 0 0 -0 0 0 0 0 0 0 0 0 0 -0 -0 -0 -0 -0 -0 -0 -0 0 0 0 0 0 0 0 0 0 0 0 0 0 0 0 0 0 0 -0
0 0 0 0 0 0 0 0 0 0 0 0 0 0 0 0 0 0 0 0 0 0 0 0 0 0 0 -0 -0 0 -0 0 0 -0 -0 0 0 0 0 0 0 -0 0 0 0 0 0 0 0 0 0 0 0 -0
0 0 0 0 0 0 0 0 0 0 0 0 0 0 0 0 -0 0 0 0 0 0 0 0 0 0 0 -0 0 0 0 0 -0 -0 0 0 0 0 0 0 -0 0 0 0 0 0 0 0 0 0 0 0 -0 0
0 0 0 0 0 0 0 0 0 0 0 0 0 0 0 0 0 0 0 0 0 0 0 0 -0 0 0 0 0 0 0 0 0 -0 0 0 0 0 0 0 0 0 0 0 0 0 0 0 0 0 0 0 -0 0
0 0 0 0 0 0 0 0 0 0 0 0 0 0 0 0 0 0 0 0 0 0 -0 -0 -0 0 0 0 0 -0 0 0 0 -0 0 0 0 0 0 0 0 0 0 0 0 0 0 0 0 0 0 0 0 0
0 0 0 0 0 0 0 0 0 0 0 0 0 0 0 0 0 0 0 0 0 0 0 -0 -0 0 0 0 0 0 0 0 0 0 0 0 0 0 0 0 0 0 0 0 0 0 0 0 0 0 0 0 0 0
0 0 0 0 0 0 0 0 0 0 0 0 0 -0 0 0 0 0 0 0 0 0 0 0 0 0 0 0 0 0 0 0 -0 0 0 0 0 0 0 0 0 0 0 0 0 0 0 0 0 0 0 0 0 0
0 0 0 0 0 0 0 0 0 0 0 0 0 0 0 0 0 0 0 0 0 0 0 0 0 0 0 0 0 0 0 0 0 0 0 0 0 0 0 0 0 0 0 0 0 0 0 0 0 0 -0 -0 0 0
0 0 0 0 0 0 0 0 0 0 0 0 0 0 0 0 0 0 0 0 0 0 0 0 0 0 0 0 0 0 0 0 -0 -0 0 0 0 0 0 0 0 0 0 0 -0 0 0 0 0 0 0 -0 -0 -0
0 0 0 0 0 0 0 0 0 0 0 0 0 0 0 0 0 0 0 0 -0 0 0 0 0 0 0 0 0 0 0 0 0 0 0 0 0 0 0 0 0 0 0 0 0 -0 0 0 0 0 -0 -0 -0 -0
0 0 0 0 0 0 -0 0 0 0 0 0 0 0 0 0 0 -0 0 -0 0 0 0 0 0 0 0 0 0 0 0 0 0 0 0 0 0 0 0 0 0 -0 0 0 0 0 0 0 0 0 0 0 0 0
0 0 0 0 0 0 0 0 0 0 0 0 0 0 0 0 -0 -0 -0 -0 0 0 0 0 0 0 0 0 0 0 0 0 0 0 0 0 -0 0 0 0 0 0 0 0 0 0 0 0 0 0 0 0 0 0
0 0 0 0 -0 0 0 0 0 0 0 0 0 0 0 0 -0 -0 0 0 0 0 0 0 0 0 0 0 0 0 0 0 0 0 -0 0 0 0 0 0 0 0 0 -0 0 -0 0 0 0 0 0 0 0 0
0 0 0 0 -0 -0 0 0 0 0 0 0 0 -0 0 -0 0 0 0 0 0 -0 -0 0 0 0 0 0 0 0 0 -0 0 0 0 0 0 -0 0 0 0 0 0 0 0 -0 0 0 0 0 0 0 0 0
0 0 -0 -0 -0 -0 0 0 0 0 0 0 -0 -0 -0 0 0 0 0 0 0 0 0 0 0 0 0 0 0 0 0 -0 0 -0 -0 -0 0 0 0 0 0 0 0 0 0 -0 0 0 0 0 0 0 0 0
0 0 -0 -0 -0 -0 0 0 0 -0 -0 -0 0 0 0 0 0 0 0 0 0 0 0 0 -0 0 0 0 0 0 0 -0 0 0 -0 0 -0 0 0 0 0 0 0 0 0 0 0 0 0 0 0 -0 0 -0
0 0 -0 0 -0 0 -0 -0 -0 -0 0 0 0 0 0 0 0 0 0 0 0 0 0 -0 0 0 0 0 0 0 -0 0 0 0 -0 -0 0 0 0 0 0 0 0 0 0 0 0 0 0 0 0 -0 -0 -0
-0 -0 -0 0 0 -0 -0 0 0 0 0 0 0 0 0 0 0 0 0 0 0 0 0 0 0 0 0 0 0 0 -0 -0 -0 0 0 0 0 -0 0 0 0 0 0 0 0 0 0 0 0 0 0 0 0 0
-0 0 0 0 0 0 0 0 0 0 0 0 0 0 0 0 0 0 0 0 0 0 -0 0 0 0 0 0 0 -0 -0 -0 0 -0 0 -0 -0 0 0 0 0 0 0 0 0 0 0 0 0 0 0 0 0 0
-0 0 0 0 0 0 0 0 0 0 0 0 0 0 0 0 0 0 0 0 0 0 0 0 0 0 0 0 0 0 0 0 0 0 0 0 -0 -0 0 0 0 0 0 0 0 0 0 0 -0 0 0 0 0 0
0 0 0 0 0 0 0 0 0 0 0 0 0 0 0 0 0 0 0 0 0 -0 0 0 0 0 0 0 0 0 0 0 0 0 0 0 0 0 0 0 0 0 0 0 0 0 0 0 0 0 0 0 0 0
0 0 0 0 0 0 0 0 0 0 0 0 0 0 0 0 0 0 -0 0 0 0 0 0 0 0 0 0 0 0 0 0 0 0 0 0 0 0 0 0 0 0 0 0 0 0 0 0 0 0 0 0 -0 0
0 0 0 0 0 0 0 0 0 -0 -0 -0 0 0 0 0 0 -0 -0 -0 0 0 0 0 0 0 0 0 0 0 0 0 -0 -0 -0 -0 -0 -0 0 0 0 0 0 0 0 0 0 0 0 0 0 0 0 -0
0 0 0 0 0 0 0 0 -0 0 0 0 0 0 0 0 -0 0 0 0 0 0 0 0 0 0 0 0 0 0 0 0 0 0 0 0 -0 -0 -0 0 -0 -0 -0 0 -0 -0 0 -0 -0 -0 -0 -0 0 -0
0 0 0 0 0 0 0 -0 0 0 0 0 0 0 0 -0 -0 -0 -0 0 0 0 0 0 0 0 0 0 0 0 0 0 0 0 0 0 0 -0 -0 0 0 -0 -0 0 0 0 -0 0 0 0 0 -0 -0 -0
0 0 0 0 0 0 0 0 0 0 0 0 0 -0 0 -0 -0 0 -0 -0 0 0 0 0 0 0 0 0 0 0 0 0 0 0 0 0 -0 -0 -0 -0 -0 0 0 0 0 0 0 -0 -0 0 0 0 0 -0
0 0 0 0 0 0 0 0 0 0 0 0 0 -0 -0 -0 -0 0 0 0 0 0 0 0 0 0 0 0 0 0 0 0 0 0 0 0 0 0 -0 0 0 -0 0 0 0 0 0 0 -0 0 0 0 0 0
0 0 0 0 0 0 0 0 0 0 0 0 0 -0 -0 0 -0 -0 0 0 0 0 0 0 0 0 0 0 0 0 0 0 0 0 0 0 0 0 0 0 0 0 -0 0 0 0 0 0 0 -0 -0 0 -0 0
Wind_Speed_500mb
69 63 61 58 56 52 59 48 46 38 27 20 16 11 10 11 7 7 11 13 9 13 30 20 20 24 17 12 6 6 12 9 8 6 7 10 11 13 14 22 22 26 16 18 17 14 23 38 36 30 41 61 51 47
68 64 59 54 53 49 44 45 42 34 18 15 12 9 9 14 11 15 22 13 15 18 28 41 38 37 32 25 15 9 12 6 6 4 4 7 13 13 19 21 16 10 5 11 11 15 51 67 56 58 57 65 65 63
62 56 51 45 39 36 41 39 32 21 14 12 10 11 13 18 21 23 24 20 20 17 31 18 7 8 17 32 28 15 10 10 6 10 9 6 10 13 12 13 24 14 25 11 21 22 35 49 62 63 70 74 73 74
44 38 36 33 32 34 33 28 23 16 11 10 11 15 16 17 18 20 24 20 16 12 10 8 1 9 7 17 26 36 23 5 10 9 6 6 8 11 11 18 26 32 25 18 33 45 51 47 49 61 66 65 64 66
31 31 29 30 34 33 25 21 17 14 13 10 13 17 15 14 14 16 22 18 17 11 11 28 30 17 10 25 21 26 29 27 14 3 5 6 16 12 17 21 22 9 7 5 11 45 44 52 72 78 77 71 61 57
31 32 30 29 26 19 18 15 13 14 16 19 18 15 17 15 13 14 8 8 10 7 9 7 9 10 13 12 15 22 27 24 17 5 8 12 23 6 6 12 4 14 26 32 21 48 60 67 60 59 66 69 49 55
29 27 19 15 14 12 12 13 16 19 22 22 22 31 29 20 13 14 5 5 12 7 6 11 9 18 16 12 15 15 17 10 13 6 11 19 17 19 5 16 25 42 39 46 43 47 39 34 52 61 55 50 39 31
15 14 11 8 9 11 14 17 24 21 24 24 16 10 15 20 16 18 20 26 16 9 6 6 7 13 20 15 12 16 16 10 12 10 9 11 5 10 8 18 43 45 53 36 43 42 42 49 48 54 54 40 32 25
3 4 5 9 14 20 20 21 19 17 15 6 5 5 7 7 12 12 14 14 18 11 5 8 8 5 17 11 11 16 13 8 12 9 9 8 8 9 15 23 35 35 29 40 42 39 45 46 53 54 54 47 40 30
8 13 18 22 20 18 13 13 10 7 11 8 11 7 8 10 18 10 10 6 10 11 11 11 23 4 4 2 6 9 10 6 6 12 11 6 9 9 14 18 24 27 30 35 41 39 43 48 57 54 53 47 37 29
15 17 16 14 12 10 8 10 8 10 12 6 8 7 8 10 10 8 11 13 15 9 15 18 23 6 4 3 1 4 3 3 5 7 6 6 6 11 13 20 19 17 24 30 31 32 39 34 49 53 53 47 31 20
13 14 13 8 9 8 5 8 13 15 9 9 7 5 7 10 8 10 8 8 8 7 11 13 7 6 4 2 3 7 4 4 8 7 4 6 4 12 20 24 25 22 23 31 32 31 37 38 46 46 49 35 25 9
8 10 11 11 12 14 9 14 17 13 9 9 6 6 7 9 7 11 13 9 7 6 9 17 9 5 5 8 5 5 6 9 2 4 6 1 13 21 29 25 26 27 26 29 33 31 39 39 44 45 42 22 21 16
11 12 9 10 15 19 19 14 13 11 9 6 9 6 10 11 11 12 11 4 10 9 11 8 6 9 9 7 7 6 9 3 5 8 1 7 24 28 25 28 29 27 27 24 28 31 37 36 42 40 35 22 18 26
10 10 11 11 11 14 20 14 14 18 10 9 9 9 16 24 8 11 12 7 12 12 7 3 4 4 4 5 7 6 5 7 7 5 8 20 24 26 31 28 21 19 21 20 22 28 32 31 35 39 38 21 13 20
8 6 7 9 11 13 18 20 19 19 8 11 15 14 23 10 18 22 18 15 14 13 6 6 3 5 8 6 7 9 5 7 2 3 14 20 21 20 21 21 21 22 26 24 21 24 26 25 36 37 36 36 30 28
4 8 9 11 9 5 23 28 20 11 11 10 14 24 26 16 19 16 9 17 10 10 1 4 8 10 5 5 7 7 4 2 9 12 13 18 21 21 19 19 19 19 25 26 20 20 19 21 34 41 39 46 45 37
5 11 16 15 11 17 21 18 8 9 12 22 18 24 17 15 19 20 17 14 16 12 10 4 8 5 4 6 5 6 9 7 11 13 14 15 15 16 20 21 18 18 18 23 18 16 15 15 21 25 24 30 34 35
8 10 13 14 26 12 12 13 11 10 20 22 23 30 20 19 25 20 21 21 19 6 8 1 6 5 5 2 6 3 6 3 10 12 12 8 11 12 21 19 17 14 16 15 16 14 16 18 20 21 23 22 26 28
9 9 9 19 23 8 7 7 9 12 15 11 19 22 19 21 16 26 27 24 20 12 8 7 7 11 8 5 4 3 4 4 4 12 11 12 13 12 12 18 20 18 16 15 12 14 13 17 20 23 24 23 24 25
5 10 6 13 15 13 6 6 9 14 17 19 17 20 19 22 25 30 28 16 18 8 9 16 8 9 6 8 4 8 6 5 4 8 13 18 20 18 15 15 17 20 17 13 15 16 17 18 17 17 22 25 27 31
6 9 11 6 11 7 9 12 11 9 11 20 19 26 13 24 25 25 19 18 13 18 10 8 3 3 6 9 10 11 9 7 3 6 11 13 15 14 15 17 19 21 19 18 17 16 16 17 17 21 21 23 24 25
4 10 7 8 6 8 12 10 9 10 9 7 8 7 10 12 16 17 10 13 8 6 6 3 5 7 9 8 8 10 11 6 1 7 16 15 16 19 19 18 15 16 20 19 16 18 15 17 18 19 19 22 26 27
10 6 6 7 10 9 9 10 13 11 8 6 7 5 6 10 11 11 5 7 8 8 4 6 7 6 9 9 12 11 14 7 6 14 14 13 20 25 19 16 18 17 18 17 15 14 16 17 16 16 19 23 23 23
4 7 7 8 8 8 10 7 10 9 7 7 7 4 4 2 3 4 5 7 11 5 9 7 8 21 9 14 18 18 10 6 11 15 15 10 14 19 18 14 16 19 17 17 15 14 15 17 20 19 19 21 24 25
8 11 11 8 7 6 5 7 5 5 5 5 3 4 1 4 7 2 5 9 9 7 13 15 22 12 5 16 18 20 15 13 13 18 18 12 14 12 15 14 13 13 12 12 10 11 13 17 19 19 19 20 22 21
7 5 9 9 7 9 11 15 19 10 6 6 6 8 5 3 4 5 9 4 4 13 11 27 27 5 10 16 16 15 14 15 18 20 20 19 15 19 14 13 16 16 13 14 14 16 15 14 17 16 15 16 16 16
10 9 5 12 11 12 12 9 4 10 10 10 7 3 4 2 2 4 5 5 16 25 14 12 11 8 10 13 14 15 15 14 15 17 23 23 22 21 18 14 16 21 16 15 16 12 12 14 14 17 16 16 15 15
9 10 11 13 13 8 5 5 7 2 11 13 7 3 5 7 10 13 13 9 30 18 8 12 11 8 8 10 12 13 16 12 11 11 11 18 18 18 17 17 16 15 13 13 13 12 20 15 13 15 15 14 14 13
6 5 8 7 6 4 4 5 5 10 10 10 6 13 17 16 12 11 11 11 13 13 11 6 9 9 7 8 15 17 16 10 11 14 13 16 18 16 15 15 13 13 15 14 13 16 20 16 13 14 12 12 12 10
5 6 8 10 8 8 9 12 15 13 6 3 3 11 14 15 13 9 10 12 11 13 14 12 10 12 10 10 12 15 12 7 14 13 14 12 12 13 13 13 13 13 13 12 11 10 9 9 10 8 8 8 9 9
8 8 6 5 5 9 11 11 9 10 7 4 2 5 8 11 11 7 10 11 11 12 12 11 13 14 12 8 9 9 12 11 13 14 14 9 8 8 8 8 9 10 10 9 9 10 10 8 6 9 10 9 12 12
10 10 10 11 7 5 3 7 7 6 5 5 5 4 8 7 8 7 12 9 12 15 14 14 18 14 15 11 7 4 6 6 10 15 17 16 15 14 12 8 7 7 7 7 6 7 8 8 8 8 6 8 9 8
Wind_Direction_500mb
294 296 296 293 292 291 299 302 303 299 293 294 297 285 279 245 223 265 273 254 254 279 293 271 260 257 260 256 268 20 282 191 260 273 262 313 318 338 301 300 288 283 283 261 253 247 257 13 340 309 321 316 314 298
292 291 291 288 289 289 298 299 299 290 272 276 273 248 239 220 233 269 280 286 276 256 279 287 272 255 246 243 250 245 302 344 321 297 301 311 288 292 283 287 287 305 345 299 297 291 312 311 309 304 297 293 292 284
287 287 287 285 288 292 296 295 290 268 259 268 226 223 230 237 249 256 276 289 281 281 309 259 260 236 220 225 224 214 252 237 254 295 328 293 269 303 286 291 301 309 310 259 288 274 276 292 299 294 293 290 286 281
287 285 286 286 289 292 292 282 267 239 237 228 244 254 255 258 262 262 269 280 262 292 295 300 203 218 250 223 217 222 229 314 288 288 260 246 270 302 289 293 291 287 287 274 281 283 320 299 309 303 298 293 289 275
290 290 288 288 280 282 267 265 231 226 219 234 257 278 259 265 279 272 277 270 266 273 288 299 294 267 229 204 208 214 218 235 243 263 249 255 283 290 279 283 271 302 20 300 287 301 291 290 299 306 301 292 286 282
292 289 285 282 276 264 256 211 217 223 234 254 262 264 263 267 267 272 256 250 219 214 290 291 28 215 185 188 202 203 204 217 225 231 242 251 253 219 277 284 29 12 330 308 286 296 297 298 300 306 311 310 289 287
288 283 273 266 266 221 211 223 235 251 261 267 262 271 260 250 248 248 292 115 194 297 272 288 217 174 190 196 185 181 185 189 212 229 235 257 271 190 258 264 321 337 326 319 321 319 313 317 315 322 321 323 304 294
280 269 255 210 208 238 241 252 271 271 273 275 265 274 249 231 263 264 253 255 252 256 241 262 268 180 186 192 154 173 172 181 220 233 244 247 165 208 255 288 327 323 322 309 324 325 316 320 324 333 335 330 317 289
245 210 226 233 250 269 273 277 274 267 269 209 280 260 168 215 230 221 237 265 205 217 235 234 279 67 172 199 140 181 183 191 200 223 237 218 206 221 246 300 311 319 327 321 323 328 339 334 334 337 341 340 330 327
284 279 274 277 280 282 271 258 269 224 165 144 139 187 208 209 222 239 193 180 202 223 234 251 265 322 330 346 181 187 185 213 211 213 187 235 268 248 281 292 296 321 333 338 335 328 329 341 342 339 338 337 327 306
288 284 277 271 263 260 258 247 190 159 163 191 214 214 194 200 203 206 212 213 190 221 217 227 237 194 349 284 8 253 253 248 260 161 243 226 234 243 271 297 312 317 337 336 330 340 348 331 340 340 341 339 335 324
278 270 274 257 237 207 261 195 164 159 215 213 206 216 174 200 209 244 213 192 207 239 202 197 152 189 123 133 181 230 261 267 258 155 235 251 147 18 341 326 319 313 324 336 334 350 353 350 345 350 354 351 3 60
270 267 263 254 230 218 209 190 195 221 187 210 222 203 213 208 233 226 205 206 194 231 175 163 159 158 170 178 220 242 233 234 275 213 235 31 38 340 341 331 312 311 318 323 335 355 358 357 353 8 11 24 44 57
271 276 254 270 251 226 211 207 207 206 191 216 197 215 227 195 236 224 262 106 174 201 177 168 185 188 171 182 235 230 224 250 254 234 181 34 0 334 332 322 317 324 323 316 342 1 3 5 5 22 28 45 59 36
289 268 258 270 246 222 209 212 201 191 208 235 222 237 217 248 227 243 240 201 201 195 196 191 235 210 172 237 217 258 235 240 233 311 355 349 335 333 333 339 336 357 346 338 8 4 13 15 28 32 34 47 49 51
305 275 243 253 224 229 226 203 195 199 224 225 223 243 259 249 248 243 211 207 213 204 178 183 223 220 215 208 209 216 238 233 61 273 299 316 331 327 353 2 4 11 17 12 17 37 26 32 41 47 47 51 50 56
250 247 261 249 269 208 169 177 194 204 224 237 244 241 256 239 262 254 225 206 209 179 128 208 217 222 203 212 214 174 240 29 285 289 294 305 329 333 337 353 9 14 22 18 21 33 50 41 54 40 54 58 53 57
252 293 289 267 187 159 183 190 220 244 243 241 253 257 263 247 255 256 239 227 234 186 193 210 295 254 240 243 145 178 211 241 265 283 312 324 345 356 2 4 27 17 29 32 29 35 56 42 35 49 45 55 53 60
263 260 274 202 182 210 196 210 223 258 241 251 242 253 240 235 240 234 234 235 231 211 153 156 261 239 250 322 101 141 185 217 299 319 317 326 334 352 10 26 27 24 36 38 33 52 60 60 51 49 55 56 59 69
269 260 219 204 198 234 215 226 226 253 271 259 265 251 233 239 226 217 227 222 209 213 209 214 216 205 212 272 341 269 259 241 303 329 7 11 8 10 8 24 27 33 46 41 52 65 73 63 54 61 63 66 72 67
280 218 223 204 212 248 273 253 244 262 283 285 268 244 231 225 216 217 225 217 207 218 226 242 185 185 237 282 216 201 193 194 298 353 348 342 357 7 43 32 57 28 34 70 94 79 71 63 51 62 72 78 70 78
238 191 197 210 223 249 265 239 249 266 259 259 259 228 224 223 218 220 220 222 231 232 223 197 203 222 229 202 197 196 203 210 224 327 309 310 308 71 66 40 65 52 77 89 88 83 72 71 66 73 77 90 80 90
167 203 217 209 245 236 263 225 247 225 239 245 239 225 225 213 205 203 213 219 212 177 163 174 195 197 212 220 213 211 203 196 277 1 346 355 44 81 77 61 57 76 98 92 90 88 74 80 75 84 94 104 101 98
194 233 230 222 214 270 278 229 237 250 246 265 246 235 210 201 175 204 224 128 144 153 151 138 163 202 197 220 203 167 137 114 38 36 25 41 81 85 74 73 78 86 103 107 99 82 77 71 69 82 86 98 103 103
240 238 214 253 232 238 247 253 239 231 247 228 245 241 64 147 198 244 161 133 153 138 165 152 162 171 225 168 139 123 117 77 58 48 34 43 109 101 91 89 98 98 103 100 98 94 89 77 74 90 78 95 91 96
252 206 201 241 210 233 285 276 258 259 265 267 287 40 327 188 201 160 87 134 142 169 200 184 178 210 124 144 135 119 102 70 70 56 43 60 53 94 114 114 122 107 107 101 108 100 81 89 80 78 81 98 95 94
273 259 236 231 253 273 276 261 263 276 263 327 34 358 318 278 55 19 118 60 201 164 145 155 168 182 127 143 129 117 101 89 81 66 63 65 73 65 98 113 134 125 117 99 93 108 84 89 85 79 84 98 89 91
263 298 333 286 257 255 276 293 321 28 1 338 336 255 330 18 66 138 101 91 159 145 129 145 161 163 127 136 140 135 123 105 97 82 65 65 69 72 84 107 132 130 135 120 104 80 75 94 79 84 80 95 91 93
265 279 279 285 269 259 273 317 57 221 259 203 208 183 78 84 87 98 110 91 148 140 156 128 107 110 122 138 143 140 142 117 84 81 81 80 80 77 73 80 95 110 113 125 117 108 104 98 87 85 84 93 101 102
263 272 295 277 222 268 287 16 224 260 297 293 357 102 100 89 94 101 119 131 145 148 148 144 152 103 108 141 145 148 140 128 94 83 65 80 87 93 89 87 97 115 118 111 103 110 97 86 81 88 87 95 100 99
277 272 258 260 273 289 323 326 320 322 324 321 14 91 97 113 100 102 135 146 156 158 147 139 136 148 99 95 122 144 152 138 156 135 103 98 96 95 94 97 99 111 126 124 122 120 111 98 94 90 92 100 102 93
225 228 265 293 309 299 300 306 302 289 303 315 157 131 126 123 108 109 155 158 152 144 135 144 155 155 145 119 104 125 132 141 176 178 165 136 137 127 119 112 113 123 131 136 141 139 134 132 107 97 108 100 110 113
200 234 264 280 266 244 252 292 293 329 356 3 1 99 114 94 98 117 152 162 144 150 146 121 131 130 122 122 117 163 201 235 217 219 225 231 225 205 182 186 200 174 165 154 145 142 153 157 158 167 135 110 122 123
Wind_Speed_850mb
69 63 61 58 56 52 59 48 46 38 27 20 16 11 10 11 7 7 11 13 9 13 30 20 20 24 17 12 6 6 12 9 8 6 7 10 11 13 14 22 22 26 16 18 17 14 23 38 36 30 41 61 51 47
68 64 59 54 53 49 44 45 42 34 18 15 12 9 9 14 11 15 22 13 15 18 28 41 38 37 32 25 15 9 12 6 6 4 4 7 13 13 19 21 16 10 5 11 11 15 51 67 56 58 57 65 65 63
62 56 51 45 39 36 41 39 32 21 14 12 10 11 13 18 21 23 24 20 20 17 31 18 7 8 17 32 28 15 10 10 6 10 9 6 10 13 12 13 24 14 25 11 21 22 35 49 62 63 70 74 73 74
44 38 36 33 32 34 33 28 23 16 11 10 11 15 16 17 18 20 24 20 16 12 10 8 1 9 7 17 26 36 23 5 10 9 6 6 8 11 11 18 26 32 25 18 33 45 51 47 49 61 66 65 64 66
31 31 29 30 34 33 25 21 17 14 13 10 13 17 15 14 14 16 22 18 17 11 11 28 30 17 10 25 21 26 29 27 14 3 5 6 16 12 17 21 22 9 7 5 11 45 44 52 72 78 77 71 61 57
31 32 30 29 26 19 18 15 13 14 16 19 18 15 17 15 13 14 8 8 10 7 9 7 9 10 13 12 15 22 27 24 17 5 8 12 23 6 6 12 4 14 26 32 21 48 60 67 60 59 66 69 49 55
29 27 19 15 14 12 12 13 16 19 22 22 22 31 29 20 13 14 5 5 12 7 6 11 9 18 16 12 15 15 17 10 13 6 11 19 17 19 5 16 25 42 39 46 43 47 39 34 52 61 55 50 39 31
15 14 11 8 9 11 14 17 24 21 24 24 16 10 15 20 16 18 20 26 16 9 6 6 7 13 20 15 12 16 16 10 12 10 9 11 5 10 8 18 43 45 53 36 43 42 42 49 48 54 54 40 32 25
3 4 5 9 14 20 20 21 19 17 15 6 5 5 7 7 12 12 14 14 18 11 5 8 8 5 17 11 11 16 13 8 12 9 9 8 8 9 15 23 35 35 29 40 42 39 45 46 53 54 54 47 40 30
8 13 18 22 20 18 13 13 10 7 11 8 11 7 8 10 18 10 10 6 10 11 11 11 23 4 4 2 6 9 10 6 6 12 11 6 9 9 14 18 24 27 30 35 41 39 43 48 57 54 53 47 37 29
15 17 16 14 12 10 8 10 8 10 12 6 8 7 8 10 10 8 11 13 15 9 15 18 23 6 4 3 1 4 3 3 5 7 6 6 6 11 13 20 19 17 24 30 31 32 39 34 49 53 53 47 31 20
13 14 13 8 9 8 5 8 13 15 9 9 7 5 7 10 8 10 8 8 8 7 11 13 7 6 4 2 3 7 4 4 8 7 4 6 4 12 20 24 25 22 23 31 32 31 37 38 46 46 49 35 25 9
8 10 11 11 12 14 9 14 17 13 9 9 6 6 7 9 7 11 13 9 7 6 9 17 9 5 5 8 5 5 6 9 2 4 6 1 13 21 29 25 26 27 26 29 33 31 39 39 44 45 42 22 21 16
11 12 9 10 15 19 19 14 13 11 9 6 9 6 10 11 11 12 11 4 10 9 11 8 6 9 9 7 7 6 9 3 5 8 1 7 24 28 25 28 29 27 27 24 28 31 37 36 42 40 35 22 18 26
10 10 11 11 11 14 20 14 14 18 10 9 9 9 16 24 8 11 12 7 12 12 7 3 4 4 4 5 7 6 5 7 7 5 8 20 24 26 31 28 21 19 21 20 22 28 32 31 35 39 38 21 13 20
8 6 7 9 11 13 18 20 19 19 8 11 15 14 23 10 18 22 18 15 14 13 6 6 3 5 8 6 7 9 5 7 2 3 14 20 21 20 21 21 21 22 26 24 21 24 26 25 36 37 36 36 30 28
4 8 9 11 9 5 23 28 20 11 11 10 14 24 26 16 19 16 9 17 10 10 1 4 8 10 5 5 7 7 4 2 9 12 13 18 21 21 19 19 19 19 25 26 20 20 19 21 34 41 39 46 45 37
5 11 16 15 11 17 21 18 8 9 12 22 18 24 17 15 19 20 17 14 16 12 10 4 8 5 4 6 5 6 9 7 11 13 14 15 15 16 20 21 18 18 18 23 18 16 15 15 21 25 24 30 34 35
8 10 13 14 26 12 12 13 11 10 20 22 23 30 20 19 25 20 21 21 19 6 8 1 6 5 5 2 6 3 6 3 10 12 12 8 11 12 21 19 17 14 16 15 16 14 16 18 20 21 23 22 26 28
9 9 9 19 23 8 7 7 9 12 15 11 19 22 19 21 16 26 27 24 20 12 8 7 7 11 8 5 4 3 4 4 4 12 11 12 13 12 12 18 20 18 16 15 12 14 13 17 20 23 24 23 24 25
5 10 6 13 15 13 6 6 9 14 17 19 17 20 19 22 25 30 28 16 18 8 9 16 8 9 6 8 4 8 6 5 4 8 13 18 20 18 15 15 17 20 17 13 15 16 17 18 17 17 22 25 27 31
6 9 11 6 11 7 9 12 11 9 11 20 19 26 13 24 25 25 19 18 13 18 10 8 3 3 6 9 10 11 9 7 3 6 11 13 15 14 15 17 19 21 19 18 17 16 16 17 17 21 21 23 24 25
4 10 7 8 6 8 12 10 9 10 9 7 8 7 10 12 16 17 10 13 8 6 6 3 5 7 9 8 8 10 11 6 1 7 16 15 16 19 19 18 15 16 20 19 16 18 15 17 18 19 19 22 26 27
10 6 6 7 10 9 9 10 13 11 8 6 7 5 6 10 11 11 5 7 8 8 4 6 7 6 9 9 12 11 14 7 6 14 14 13 20 25 19 16 18 17 18 17 15 14 16 17 16 16 19 23 23 23
4 7 7 8 8 8 10 7 10 9 7 7 7 4 4 2 3 4 5 7 11 5 9 7 8 21 9 14 18 18 10 6 11 15 15 10 14 19 18 14 16 19 17 17 15 14 15 17 20 19 19 21 24 25
8 11 11 8 7 6 5 7 5 5 5 5 3 4 1 4 7 2 5 9 9 7 13 15 22 12 5 16 18 20 15 13 13 18 18 12 14 12 15 14 13 13 12 12 10 11 13 17 19 19 19 20 22 21
7 5 9 9 7 9 11 15 19 10 6 6 6 8 5 3 4 5 9 4 4 13 11 27 27 5 10 16 16 15 14 15 18 20 20 19 15 19 14 13 16 16 13 14 14 16 15 14 17 16 15 16 16 16
10 9 5 12 11 12 12 9 4 10 10 10 7 3 4 2 2 4 5 5 16 25 14 12 11 8 10 13 14 15 15 14 15 17 23 23 22 21 18 14 16 21 16 15 16 12 12 14 14 17 16 16 15 15
9 10 11 13 13 8 5 5 7 2 11 13 7 3 5 7 10 13 13 9 30 18 8 12 11 8 8 10 12 13 16 12 11 11 11 18 18 18 17 17 16 15 13 13 13 12 20 15 13 15 15 14 14 13
6 5 8 7 6 4 4 5 5 10 10 10 6 13 17 16 12 11 11 11 13 13 11 6 9 9 7 8 15 17 16 10 11 14 13 16 18 16 15 15 13 13 15 14 13 16 20 16 13 14 12 12 12 10
5 6 8 10 8 8 9 12 15 13 6 3 3 11 14 15 13 9 10 12 11 13 14 12 10 12 10 10 12 15 12 7 14 13 14 12 12 13 13 13 13 13 13 12 11 10 9 9 10 8 8 8 9 9
8 8 6 5 5 9 11 11 9 10 7 4 2 5 8 11 11 7 10 11 11 12 12 11 13 14 12 8 9 9 12 11 13 14 14 9 8 8 8 8 9 10 10 9 9 10 10 8 6 9 10 9 12 12
10 10 10 11 7 5 3 7 7 6 5 5 5 4 8 7 8 7 12 9 12 15 14 14 18 14 15 11 7 4 6 6 10 15 17 16 15 14 12 8 7 7 7 7 6 7 8 8 8 8 6 8 9 8
Wind_Direction_850mb
294 296 296 293 292 291 299 302 303 299 293 294 297 285 279 245 223 265 273 254 254 279 293 271 260 257 260 256 268 20 282 191 260 273 262 313 318 338 301 300 288 283 283 261 253 247 257 13 340 309 321 316 314 298
292 291 291 288 289 289 298 299 299 290 272 276 273 248 239 220 233 269 280 286 276 256 279 287 272 255 246 243 250 245 302 344 321 297 301 311 288 292 283 287 287 305 345 299 297 291 312 311 309 304 297 293 292 284
287 287 287 285 288 292 296 295 290 268 259 268 226 223 230 237 249 256 276 289 281 281 309 259 260 236 220 225 224 214 252 237 254 295 328 293 269 303 286 291 301 309 310 259 288 274 276 292 299 294 293 290 286 281
287 285 286 286 289 292 292 282 267 239 237 228 244 254 255 258 262 262 269 280 262 292 295 300 203 218 250 223 217 222 229 314 288 288 260 246 270 302 289 293 291 287 287 274 281 283 320 299 309 303 298 293 289 275
290 290 288 288 280 282 267 265 231 226 219 234 257 278 259 265 279 272 277 270 266 273 288 299 294 267 229 204 208 214 218 235 243 263 249 255 283 290 279 283 271 302 20 300 287 301 291 290 299 306 301 292 286 282
292 289 285 282 276 264 256 211 217 223 234 254 262 264 263 267 267 272 256 250 219 214 290 291 28 215 185 188 202 203 204 217 225 231 242 251 253 219 277 284 29 12 330 308 286 296 297 298 300 306 311 310 289 287
288 283 273 266 266 221 211 223 235 251 261 267 262 271 260 250 248 248 292 115 194 297 272 288 217 174 190 196 185 181 185 189 212 229 235 257 271 190 258 264 321 337 326 319 321 319 313 317 315 322 321 323 304 294
280 269 255 210 208 238 241 252 271 271 273 275 265 274 249 231 263 264 253 255 252 256 241 262 268 180 186 192 154 173 172 181 220 233 244 247 165 208 255 288 327 323 322 309 324 325 316 320 324 333 335 330 317 289
245 210 226 233 250 269 273 277 274 267 269 209 280 260 168 215 230 221 237 265 205 217 235 234 279 67 172 199 140 181 183 191 200 223 237 218 206 221 246 300 311 319 327 321 323 328 339 334 334 337 341 340 330 327
284 279 274 277 280 282 271 258 269 224 165 144 139 187 208 209 222 239 193 180 202 223 234 251 265 322 330 346 181 187 185 213 211 213 187 235 268 248 281 292 296 321 333 338 335 328 329 341 342 339 338 337 327 306
288 284 277 271 263 260 258 247 190 159 163 191 214 214 194 200 203 206 212 213 190 221 217 227 237 194 349 284 8 253 253 248 260 161 243 226 234 243 271 297 312 317 337 336 330 340 348 331 340 340 341 339 335 324
278 270 274 257 237 207 261 195 164 159 215 213 206 216 174 200 209 244 213 192 207 239 202 197 152 189 123 133 181 230 261 267 258 155 235 251 147 18 341 326 319 313 324 336 334 350 353 350 345 350 354 351 3 60
270 267 263 254 230 218 209 190 195 221 187 210 222 203 213 208 233 226 205 206 194 231 175 163 159 158 170 178 220 242 233 234 275 213 235 31 38 340 341 331 312 311 318 323 335 355 358 357 353 8 11 24 44 57
271 276 254 270 251 226 211 207 207 206 191 216 197 215 227 195 236 224 262 106 174 201 177 168 185 188 171 182 235 230 224 250 254 234 181 34 0 334 332 322 317 324 323 316 342 1 3 5 5 22 28 45 59 36
289 268 258 270 246 222 209 212 201 191 208 235 222 237 217 248 227 243 240 201 201 195 196 191 235 210 172 237 217 258 235 240 233 311 355 349 335 333 333 339 336 357 346 338 8 4 13 15 28 32 34 47 49 51
305 275 243 253 224 229 226 203 195 199 224 225 223 243 259 249 248 243 211 207 213 204 178 183 223 220 215 208 209 216 238 233 61 273 299 316 331 327 353 2 4 11 17 12 17 37 26 32 41 47 47 51 50 56
250 247 261 249 269 208 169 177 194 204 224 237 244 241 256 239 262 254 225 206 209 179 128 208 217 222 203 212 214 174 240 29 285 289 294 305 329 333 337 353 9 14 22 18 21 33 50 41 54 40 54 58 53 57
252 293 289 267 187 159 183 190 220 244 243 241 253 257 263 247 255 256 239 227 234 186 193 210 295 254 240 243 145 178 211 241 265 283 312 324 345 356 2 4 27 17 29 32 29 35 56 42 35 49 45 55 53 60
263 260 274 202 182 210 196 210 223 258 241 251 242 253 240 235 240 234 234 235 231 211 153 156 261 239 250 322 101 141 185 217 299 319 317 326 334 352 10 26 27 24 36 38 33 52 60 60 51 49 55 56 59 69
269 260 219 204 198 234 215 226 226 253 271 259 265 251 233 239 226 217 227 222 209 213 209 214 216 205 212 272 341 269 259 241 303 329 7 11 8 10 8 24 27 33 46 41 52 65 73 63 54 61 63 66 72 67
280 218 223 204 212 248 273 253 244 262 283 285 268 244 231 225 216 217 225 217 207 218 226 242 185 185 237 282 216 201 193 194 298 353 348 342 357 7 43 32 57 28 34 70 94 79 71 63 51 62 72 78 70 78
238 191 197 210 223 249 265 239 249 266 259 259 259 228 224 223 218 220 220 222 231 232 223 197 203 222 229 202 197 196 203 210 224 327 309 310 308 71 66 40 65 52 77 89 88 83 72 71 66 73 77 90 80 90
167 203 217 209 245 236 263 225 247 225 239 245 239 225 225 213 205 203 213 219 212 177 163 174 195 197 212 220 213 211 203 196 277 1 346 355 44 81 77 61 57 76 98 92 90 88 74 80 75 84 94 104 101 98
194 233 230 222 214 270 278 229 237 250 246 265 246 235 210 201 175 204 224 128 144 153 151 138 163 202 197 220 203 167 137 114 38 36 25 41 81 85 74 73 78 86 103 107 99 82 77 71 69 82 86 98 103 103
240 238 214 253 232 238 247 253 239 231 247 228 245 241 64 147 198 244 161 133 153 138 165 152 162 171 225 168 139 123 117 77 58 48 34 43 109 101 91 89 98 98 103 100 98 94 89 77 74 90 78 95 91 96
252 206 201 241 210 233 285 276 258 259 265 267 287 40 327 188 201 160 87 134 142 169 200 184 178 210 124 144 135 119 102 70 70 56 43 60 53 94 114 114 122 107 107 101 108 100 81 89 80 78 81 98 95 94
273 259 236 231 253 273 276 261 263 276 263 327 34 358 318 278 55 19 118 60 201 164 145 155 168 182 127 143 129 117 101 89 81 66 63 65 73 65 98 113 134 125 117 99 93 108 84 89 85 79 84 98 89 91
263 298 333 286 257 255 276 293 321 28 1 338 336 255 330 18 66 138 101 91 159 145 129 145 161 163 127 136 140 135 123 105 97 82 65 65 69 72 84 107 132 130 135 120 104 80 75 94 79 84 80 95 91 93
265 279 279 285 269 259 273 317 57 221 259 203 208 183 78 84 87 98 110 91 148 140 156 128 107 110 122 138 143 140 142 117 84 81 81 80 80 77 73 80 95 110 113 125 117 108 104 98 87 85 84 93 101 102
263 272 295 277 222 268 287 16 224 260 297 293 357 102 100 89 94 101 119 131 145 148 148 144 152 103 108 141 145 148 140 128 94 83 65 80 87 93 89 87 97 115 118 111 103 110 97 86 81 88 87 95 100 99
277 272 258 260 273 289 323 326 320 322 324 321 14 91 97 113 100 102 135 146 156 158 147 139 136 148 99 95 122 144 152 138 156 135 103 98 96 95 94 97 99 111 126 124 122 120 111 98 94 90 92 100 102 93
225 228 265 293 309 299 300 306 302 289 303 315 157 131 126 123 108 109 155 158 152 144 135 144 155 155 145 119 104 125 132 141 176 178 165 136 137 127 119 112 113 123 131 136 141 139 134 132 107 97 108 100 110 113
200 234 264 280 266 244 252 292 293 329 356 3 1 99 114 94 98 117 152 162 144 150 146 121 131 130 122 122 117 163 201 235 217 219 225 231 225 205 182 186 200 174 165 154 145 142 153 157 158 167 135 110 122 123